Tracking 20719 objects as of 24-May-2020
HD Live streaming from Space Station
objects crossing your sky now

TVSAT 2

Track TVSAT 2 now!
TVSAT 2 is classified as:


NORAD ID: 20168
Int'l Code: 1989-062A
Perigee: 35,882.1 km
Apogee: 35,939.7 km
Inclination: 14.6 °
Period: 1,442.1 minutes
Semi major axis: 42281 km
RCS: 2.0976 m2 (large)
Launch date: August 8, 1989
Source: Germany (GER)
Launch site: FRENCH GUIANA (FRGUI)
aabbcc
Your satellite tracking list
Your tracking list is empty




NASA's NSSDC Master Catalog

Two Line Element Set (TLE):
1 20168U 89062A   20144.86004269 -.00000155 +00000-0 +00000-0 0  9990
2 20168 014.6316 013.3175 0006803 060.2374 109.6794 00.99855312112382
Source of the keplerian elements: AFSPC